FW8483 Weather Reports


Display with metric or nautical units.
time (UTC)temp
F
wind
direction
speed
MPH
gust
MPH
rain 1hr
in
rain 24hr
in
rain mn
in
humidity
%
barometer
mb
20260905222510 81 320 0.0 2.0 0.00 0.28 0.27 87 1011.9
20260905222011 82 338 1.0 2.0 0.00 0.28 0.27 86 1012.0
20260905221520 82 336 0.0 2.0 0.00 0.29 0.27 86 1012.0
20260905221010 82 336 0.0 4.0 0.00 0.29 0.27 85 1012.1
20260905220511 83 338 1.0 4.0 0.00 0.30 0.27 83 1012.0
20260905220022 83 347 2.0 4.0 0.00 0.31 0.27 81 1012.0
20260905215512 84 342 2.0 4.0 0.00 0.32 0.27 80 1012.1
20260905215006 85 28 1.0 4.0 0.00 0.33 0.27 80 1012.1
20260905214513 85 47 0.0 0.0 0.00 0.34 0.27 83 1012.3
20260905214007 85 236 0.0 0.0 0.00 0.35 0.27 81 1012.4
20260905213509 84 236 0.0 0.0 0.00 0.36 0.27 80 1012.3
20260905213025 84 236 0.0 0.0 0.00 0.37 0.27 81 1012.3
20260905212510 84 144 0.0 3.0 0.00 0.38 0.27 81 1012.3
20260905212009 84 9 0.0 3.0 0.00 0.39 0.27 80 1012.3
20260905211522 84 9 1.0 7.0 0.00 0.39 0.27 79 1012.3
20260905211011 85 344 3.0 7.0 0.00 0.40 0.27 78 1012.3
20260905210512 86 314 1.0 7.0 0.00 0.40 0.27 80 1012.3
20260905210027 86 271 1.0 7.0 0.00 0.41 0.27 78 1012.2
20260905205511 87 259 3.0 5.0 0.00 0.41 0.27 77 1012.1
20260905205011 87 307 0.0 5.0 0.00 0.41 0.27 79 1012.1
20260905204512 86 204 0.0 4.0 0.00 0.42 0.27 81 1012.2
20260905204005 85 252 1.0 4.0 0.00 0.42 0.27 82 1012.3
20260905203508 85 238 0.0 2.0 0.00 0.43 0.27 86 1012.4
20260905203025 84 209 0.0 3.0 0.00 0.44 0.27 83 1012.4
20260905202509 84 204 0.0 3.0 0.00 0.46 0.27 83 1012.4
20260905202010 84 249 0.0 7.0 0.00 0.48 0.27 83 1012.5
20260905201524 84 289 0.0 7.0 0.00 0.51 0.27 83 1012.4
20260905201011 85 233 2.0 6.0 0.00 0.55 0.27 86 1012.5
20260905200511 85 247 1.0 4.0 0.00 0.60 0.27 85 1012.4
20260905200033 85 259 0.0 7.0 0.02 0.65 0.27 86 1012.5
20260905195514 85 219 1.0 8.0 0.15 0.71 0.27 84 1012.6
20260905195013 85 161 4.0 8.0 0.26 0.78 0.27 85 1012.7
20260905194526 84 163 3.0 7.0 0.27 0.85 0.27 86 1012.6
20260905194012 83 173 3.0 7.0 0.27 0.92 0.27 88 1012.6
20260905193503 82 182 2.0 4.0 0.27 1.00 0.27 87 1012.8
20260905193014 82 165 0.0 3.0 0.27 1.09 0.27 88 1013.0
20260905192506 82 144 1.0 3.0 0.27 1.19 0.27 87 1013.1
20260905192009 82 148 1.0 3.0 0.27 1.28 0.27 90 1013.0
20260905191537 81 175 0.0 3.0 0.27 1.40 0.27 91 1013.1
20260905191011 81 195 0.0 9.0 0.27 1.49 0.27 90 1013.2
20260905190511 81 97 1.0 9.0 0.27 1.59 0.27 86 1013.2
20260905190043 83 119 5.0 10.0 0.25 1.68 0.25 85 1013.5
20260905185512 84 205 2.0 10.0 0.12 1.64 0.12 84 1013.8
20260905185012 87 248 5.0 10.0 0.01 1.61 0.01 79 1013.9
20260905184536 88 220 1.0 5.0 0.00 1.66 0.00 75 1013.7
20260905184012 88 234 0.0 4.0 0.00 1.67 0.00 73 1013.6
20260905183513 88 306 1.0 6.0 0.00 1.67 0.00 72 1013.6
20260905183031 89 323 3.0 6.0 0.00 1.67 0.00 72 1013.5
20260905182507 89 276 3.0 6.0 0.00 1.67 0.00 71 1013.3
20260905182008 89 324 0.0 4.0 0.00 1.67 0.00 72 1013.2
20260905181526 89 300 3.0 6.0 0.00 1.67 0.00 69 1013.3
20260905181011 89 276 2.0 6.0 0.00 1.67 0.00 73 1013.3
20260905180511 89 294 2.0 6.0 0.00 1.67 0.00 75 1013.5
20260905180027 88 315 3.0 6.0 0.00 1.67 0.00 74 1013.6
20260905175517 87 224 2.0 5.0 0.00 1.67 0.00 76 1013.6
20260905175019 87 26 0.0 4.0 0.00 1.67 0.00 77 1013.7
20260905174504 86 300 2.0 7.0 0.00 1.67 0.00 76 1013.8
20260905174003 87 248 3.0 7.0 0.00 1.67 0.00 76 1013.9
20260905173503 87 167 2.0 3.0 0.00 1.67 0.00 76 1013.9
20260905173030 87 171 0.0 6.0 0.00 1.67 0.00 77 1014.0
20260905172507 87 291 3.0 6.0 0.00 1.67 0.00 76 1014.1
20260905172007 86 255 0.0 4.0 0.00 1.67 0.00 78 1014.1
20260905171515 86 315 2.0 4.0 0.00 1.67 0.00 78 1014.3
20260905171009 86 336 0.0 7.0 0.00 1.67 0.00 79 1014.3
20260905170510 86 336 4.0 7.0 0.00 1.67 0.00 77 1014.5
20260905170029 86 274 0.0 5.0 0.00 1.67 0.00 77 1014.5
20260905165514 86 44 2.0 5.0 0.00 1.67 0.00 78 1014.4
20260905165013 86 76 1.0 5.0 0.00 1.67 0.00 80 1014.5
20260905164532 86 42 3.0 6.0 0.00 1.68 0.00 81 1014.6
20260905164017 85 312 3.0 7.0 0.00 1.68 0.00 80 1014.7
20260905163503 85 309 3.0 9.0 0.00 1.68 0.00 82 1014.7
20260905163009 85 352 4.0 9.0 0.00 1.68 0.00 81 1014.9
20260905162507 86 24 3.0 6.0 0.00 1.68 0.00 81 1014.9
20260905162005 86 334 2.0 5.0 0.00 1.68 0.00 81 1014.9
20260905161514 85 311 2.0 4.0 0.00 1.68 0.00 80 1014.9
20260905161008 85 80 1.0 5.0 0.00 1.68 0.00 82 1014.8
20260905160509 85 57 3.0 4.0 0.00 1.68 0.00 81 1014.9
20260905160021 84 346 1.0 4.0 0.00 1.68 0.00 83 1015.0
20260905155514 83 5 1.0 5.0 0.00 1.68 0.00 85 1015.0
20260905155011 83 86 2.0 6.0 0.00 1.68 0.00 90 1014.9
20260905154526 82 22 2.0 7.0 0.00 1.68 0.00 90 1014.9
20260905154015 83 22 3.0 7.0 0.00 1.68 0.00 89 1014.9
20260905153516 83 14 3.0 5.0 0.00 1.68 0.00 90 1014.9
20260905153037 82 45 1.0 4.0 0.00 1.68 0.00 91 1014.9
20260905152504 82 23 1.0 3.0 0.00 1.68 0.00 92 1015.1
20260905152006 81 15 0.0 4.0 0.00 1.68 0.00 93 1015.1
20260905151515 81 17 2.0 4.0 0.00 1.68 0.00 93 1015.2
20260905151007 81 360 2.0 4.0 0.00 1.68 0.00 94 1015.1
20260905150506 81 317 1.0 3.0 0.00 1.68 0.00 95 1015.1
20260905150019 80 103 0.0 2.0 0.00 1.68 0.00 97 1015.1
20260905145512 80 18 0.0 2.0 0.00 1.68 0.00 97 1015.1
20260905145010 79 18 0.0 2.0 0.00 1.68 0.00 98 1015.0
20260905144528 79 142 0.0 0.0 0.00 1.68 0.00 98 1015.0
20260905144011 79 40 0.0 0.0 0.00 1.68 0.00 98 1015.0
20260905143515 78 40 0.0 0.0 0.00 1.68 0.00 98 1014.9
20260905143032 78 40 0.0 0.0 0.00 1.68 0.00 98 1015.0
20260905142514 78 31 0.0 0.0 0.00 1.68 0.00 98 1015.0
20260905142014 78 31 0.0 0.0 0.00 1.68 0.00 98 1015.0
20260905141511 78 31 0.0 0.0 0.00 1.68 0.00 98 1015.0
20260905141006 77 78 0.0 4.0 0.00 1.68 0.00 98 1014.9
20260905140508 77 85 0.0 4.0 0.00 1.68 0.00 98 1014.9
20260905140029 77 82 1.0 4.0 0.00 1.68 0.00 98 1014.9
20260905135507 77 97 3.0 4.0 0.00 1.68 0.00 98 1014.9
20260905135012 77 105 2.0 4.0 0.00 1.68 0.00 98 1015.0
20260905134525 77 89 2.0 4.0 0.00 1.68 0.00 98 1015.0
20260905134013 76 53 1.0 4.0 0.00 1.68 0.00 98 1015.0
20260905133513 76 93 2.0 4.0 0.00 1.68 0.00 98 1014.9
20260905133030 76 73 3.0 4.0 0.00 1.68 0.00 98 1015.0
20260905132514 76 82 1.0 3.0 0.00 1.68 0.00 98 1015.0
20260905132019 76 82 2.0 3.0 0.00 1.68 0.00 98 1015.0
20260905131529 76 36 2.0 3.0 0.00 1.68 0.00 98 1015.0
20260905131003 75 61 1.0 3.0 0.00 1.68 0.00 98 1015.0
20260905130509 75 83 1.0 3.0 0.00 1.68 0.00 98 1015.0
20260905130017 75 360 0.0 2.0 0.00 1.68 0.00 98 1015.0
20260905125508 75 22 0.0 2.0 0.00 1.68 0.00 98 1014.9
20260905125011 75 48 0.0 2.0 0.00 1.68 0.00 98 1014.9
20260905124525 75 339 1.0 2.0 0.00 1.68 0.00 98 1014.7
20260905124013 74 30 1.0 2.0 0.00 1.68 0.00 98 1014.7
20260905123514 74 86 0.0 2.0 0.00 1.68 0.00 98 1014.7
20260905123033 74 67 1.0 3.0 0.00 1.68 0.00 98 1014.7
20260905122514 74 22 0.0 3.0 0.00 1.68 0.00 98 1014.7
20260905122022 74 26 2.0 3.0 0.00 1.68 0.00 98 1014.7
20260905121532 74 46 0.0 0.0 0.00 1.68 0.00 98 1014.7
20260905121017 74 46 0.0 0.0 0.00 1.68 0.00 98 1014.6
20260905120517 74 46 0.0 0.0 0.00 1.68 0.00 98 1014.4
20260905120018 74 291 0.0 0.0 0.00 1.68 0.00 98 1014.3
20260905115506 74 291 0.0 0.0 0.00 1.68 0.00 98 1014.2
20260905115010 74 291 0.0 0.0 0.00 1.68 0.00 98 1014.2
20260905114526 74 185 0.0 0.0 0.00 1.68 0.00 98 1014.2
20260905114011 74 169 0.0 2.0 0.00 1.68 0.00 98 1014.1
20260905113512 74 172 0.0 2.0 0.00 1.68 0.00 98 1014.0
20260905113030 74 180 1.0 2.0 0.00 1.68 0.00 98 1013.8
20260905112515 74 193 0.0 0.0 0.00 1.68 0.00 98 1013.9
20260905112015 74 180 0.0 0.0 0.00 1.68 0.00 98 1013.9
20260905111536 74 70 0.0 0.0 0.00 1.68 0.00 98 1013.9
20260905111015 74 70 0.0 0.0 0.00 1.68 0.00 98 1013.9
20260905110514 74 70 0.0 0.0 0.00 1.68 0.00 98 1013.9
20260905110032 74 70 0.0 0.0 0.00 1.68 0.00 98 1013.9
20260905105519 74 70 0.0 0.0 0.00 1.68 0.00 98 1013.9
20260905105010 74 70 0.0 0.0 0.00 1.68 0.00 98 1013.9
20260905104525 74 70 0.0 0.0 0.00 1.68 0.00 98 1013.9
20260905104010 74 70 0.0 0.0 0.00 1.68 0.00 98 1013.9
20260905103511 74 70 0.0 0.0 0.00 1.68 0.00 98 1013.9
20260905103025 74 70 0.0 0.0 0.00 1.68 0.00 98 1013.8
20260905102513 74 70 0.0 0.0 0.00 1.68 0.00 98 1013.8
20260905102015 74 70 0.0 0.0 0.00 1.68 0.00 98 1013.7
20260905101531 74 70 0.0 0.0 0.00 1.68 0.00 98 1013.9
20260905101014 74 70 0.0 0.0 0.00 1.68 0.00 98 1013.9
20260905100514 74 70 0.0 0.0 0.00 1.68 0.00 98 1013.9
20260905100033 74 70 0.0 0.0 0.00 1.68 0.00 98 1013.9
20260905095515 74 70 0.0 0.0 0.00 1.68 0.00 98 1013.8
20260905095016 74 70 0.0 0.0 0.00 1.68 0.00 98 1013.8
20260905094532 74 70 0.0 0.0 0.00 1.68 0.00 98 1013.8
20260905094008 74 79 0.0 0.0 0.00 1.68 0.00 98 1013.9
20260905093511 74 79 0.0 0.0 0.00 1.68 0.00 98 1013.9
20260905093026 74 79 0.0 0.0 0.00 1.68 0.00 98 1013.8
20260905092511 74 79 0.0 0.0 0.00 1.68 0.00 98 1013.8
20260905092010 74 79 0.0 0.0 0.00 1.68 0.00 98 1013.8
20260905091527 74 79 0.0 0.0 0.00 1.68 0.00 98 1013.7
20260905091015 74 80 0.0 0.0 0.00 1.68 0.00 98 1013.7
20260905090515 74 42 0.0 0.0 0.00 1.68 0.00 98 1013.6
20260905090039 74 42 0.0 0.0 0.00 1.68 0.00 98 1013.6
20260905085514 74 42 0.0 0.0 0.00 1.68 0.00 98 1013.7
20260905085005 74 42 0.0 0.0 0.00 1.68 0.00 98 1013.7
20260905084515 74 42 0.0 0.0 0.00 1.68 0.00 98 1013.7
20260905084008 74 42 0.0 0.0 0.00 1.68 0.00 98 1013.6
20260905083508 74 42 0.0 0.0 0.00 1.68 0.00 98 1013.6
20260905083033 74 42 0.0 0.0 0.00 1.68 0.00 98 1013.6
20260905082510 74 42 0.0 0.0 0.00 1.68 0.00 98 1013.7
20260905082013 74 42 0.0 1.0 0.00 1.68 0.00 98 1013.6
20260905081503 74 42 0.0 2.0 0.00 1.68 0.00 98 1013.5
20260905081003 74 42 1.0 2.0 0.00 1.68 0.00 98 1013.4
20260905080503 74 41 0.0 0.0 0.00 1.68 0.00 98 1013.5
20260905080009 74 51 0.0 0.0 0.00 1.68 0.00 98 1013.4
20260905075506 74 51 0.0 0.0 0.00 1.68 0.00 98 1013.5
20260905075003 74 51 0.0 0.0 0.00 1.68 0.00 98 1013.4
20260905074515 74 51 0.0 0.0 0.00 1.68 0.00 98 1013.3
20260905074006 74 51 0.0 0.0 0.00 1.68 0.00 98 1013.4
20260905073508 74 51 0.0 0.0 0.00 1.68 0.00 98 1013.4
20260905073024 74 51 0.0 0.0 0.00 1.68 0.00 98 1013.3
20260905072511 74 51 0.0 0.0 0.00 1.68 0.00 98 1013.4
20260905072011 74 51 0.0 0.0 0.00 1.68 0.00 98 1013.5
20260905071527 74 93 0.0 0.0 0.00 1.68 0.00 98 1013.4
20260905071016 74 93 0.0 0.0 0.00 1.68 0.00 98 1013.3
20260905070502 74 93 0.0 0.0 0.00 1.68 0.00 98 1013.4
20260905070012 74 80 0.0 0.0 0.00 1.68 0.00 98 1013.4
20260905065502 74 80 0.0 0.0 0.00 1.68 0.00 98 1013.3
20260905065003 74 80 0.0 0.0 0.00 1.68 0.00 98 1013.2
20260905064514 74 178 0.0 0.0 0.00 1.68 0.00 98 1013.3
20260905064003 74 178 0.0 0.0 0.00 1.68 0.00 98 1013.3
20260905063506 75 178 0.0 0.0 0.00 1.68 0.00 98 1013.4
20260905063017 75 178 0.0 0.0 0.00 1.68 0.00 98 1013.5
20260905062507 75 163 0.0 0.0 0.00 1.68 0.00 98 1013.5
20260905062011 75 163 0.0 0.0 0.00 1.68 0.00 98 1013.5
20260905061525 75 163 0.0 0.0 0.00 1.68 0.00 98 1013.5
20260905061011 75 163 0.0 0.0 0.00 1.68 0.00 98 1013.5
20260905060511 75 163 0.0 0.0 0.00 1.68 0.00 98 1013.6
20260905060005 75 163 0.0 0.0 0.00 1.68 0.00 98 1013.6
20260905055505 75 163 0.0 0.0 0.00 1.68 0.00 98 1013.6
20260905055004 75 163 0.0 0.0 0.01 1.68 0.00 98 1013.6
20260905054512 75 163 0.0 0.0 0.01 1.68 0.00 98 1013.6
20260905054007 75 163 0.0 0.0 0.01 1.68 0.00 98 1013.6
20260905053504 75 163 0.0 0.0 0.01 1.68 0.00 98 1013.6
20260905053014 75 163 0.0 0.0 0.01 1.68 0.00 98 1013.7
20260905052507 75 81 0.0 0.0 0.01 1.68 0.00 98 1013.8
20260905052009 75 81 0.0 0.0 0.01 1.68 0.00 98 1013.9
20260905051529 75 81 0.0 0.0 0.01 1.68 0.00 98 1013.9
20260905051010 75 81 0.0 0.0 0.01 1.68 0.00 98 1013.9
20260905050512 75 81 0.0 0.0 0.01 1.68 0.00 98 1013.9
20260905050027 75 81 0.0 0.0 0.01 1.68 0.00 98 1013.8
20260905045515 75 81 0.0 0.0 0.01 1.68 1.68 98 1013.9
20260905045003 75 81 0.0 0.0 0.00 1.67 1.67 98 1014.0
20260905044509 75 81 0.0 0.0 0.00 1.67 1.67 98 1014.1
20260905044004 75 81 0.0 0.0 0.00 1.67 1.67 98 1014.1
20260905043504 75 81 0.0 2.0 0.00 1.67 1.67 98 1014.1
20260905043016 75 81 0.0 2.0 0.00 1.67 1.67 98 1014.1
20260905042508 75 81 1.0 3.0 0.00 1.67 1.67 98 1014.2
20260905042007 75 57 2.0 3.0 0.00 1.67 1.67 98 1014.3
20260905041522 75 57 2.0 3.0 0.00 1.67 1.67 98 1014.2
20260905041009 75 81 2.0 4.0 0.00 1.67 1.67 98 1014.2
20260905040511 75 81 0.0 4.0 0.00 1.67 1.67 97 1014.2
20260905040033 75 57 1.0 3.0 0.00 1.67 1.67 97 1014.3
20260905035514 75 84 1.0 4.0 0.00 1.67 1.67 97 1014.3
20260905035015 75 38 2.0 4.0 0.00 1.67 1.67 97 1014.3
20260905034531 75 59 2.0 4.0 0.00 1.67 1.67 97 1014.4
20260905034003 75 18 1.0 3.0 0.00 1.67 1.67 98 1014.4
20260905033503 75 62 0.0 0.0 0.00 1.67 1.67 98 1014.6
20260905033010 75 36 0.0 0.0 0.00 1.67 1.67 97 1014.5
20260905032502 75 36 0.0 0.0 0.00 1.67 1.67 97 1014.5
20260905032006 75 36 0.0 0.0 0.00 1.67 1.67 97 1014.6
20260905031520 75 36 0.0 0.0 0.00 1.67 1.67 97 1014.6
20260905031008 75 36 0.0 3.0 0.00 1.67 1.67 97 1014.6
20260905030510 75 29 0.0 3.0 0.00 1.67 1.67 97 1014.7
20260905030028 75 59 1.0 4.0 0.00 1.67 1.67 97 1014.8
20260905025512 75 62 2.0 4.0 0.00 1.67 1.67 97 1014.8
20260905025015 75 75 3.0 4.0 0.00 1.67 1.67 97 1014.9
20260905024532 75 92 0.0 3.0 0.00 1.67 1.67 97 1014.9
20260905024016 75 128 0.0 0.0 0.00 1.67 1.67 97 1014.8
20260905023516 75 128 0.0 0.0 0.00 1.67 1.67 97 1014.9
20260905023014 75 128 0.0 0.0 0.00 1.67 1.67 97 1014.8
20260905022506 75 128 0.0 0.0 0.00 1.67 1.67 97 1014.9
20260905022006 75 43 0.0 0.0 0.00 1.67 1.67 97 1015.1
20260905021516 75 43 0.0 0.0 0.00 1.67 1.67 97 1015.0
20260905021009 75 43 0.0 0.0 0.00 1.67 1.67 97 1015.0
20260905020509 75 43 0.0 2.0 0.00 1.67 1.67 97 1014.9
20260905020026 75 43 0.0 2.0 0.00 1.67 1.67 97 1014.9
20260905015512 75 36 1.0 2.0 0.00 1.67 1.67 97 1014.9
20260905015010 75 28 0.0 0.0 0.00 1.67 1.67 97 1014.9
20260905014529 75 84 0.0 0.0 0.00 1.67 1.67 97 1014.9
20260905014014 75 84 0.0 0.0 0.00 1.67 1.67 97 1014.7
20260905013513 75 84 0.0 0.0 0.00 1.67 1.67 97 1014.6
20260905013034 75 84 0.0 0.0 0.00 1.67 1.67 97 1014.6
20260905012514 75 84 0.0 0.0 0.00 1.67 1.67 97 1014.5
20260905012004 75 84 0.0 0.0 0.00 1.67 1.67 97 1014.3
20260905011516 75 84 0.0 0.0 0.00 1.67 1.67 97 1014.2
20260905011007 76 84 0.0 0.0 0.00 1.67 1.67 97 1014.3
20260905010508 76 84 0.0 0.0 0.00 1.67 1.67 97 1014.2
20260905010021 76 84 0.0 0.0 0.00 1.67 1.67 97 1014.2
20260905005508 75 84 0.0 0.0 0.00 1.67 1.67 97 1014.2
20260905005011 76 84 0.0 0.0 0.00 1.67 1.67 97 1014.2
20260905004527 76 84 0.0 0.0 0.00 1.67 1.67 97 1014.3
20260905004017 76 84 0.0 0.0 0.00 1.67 1.67 97 1014.4
20260905003514 76 84 0.0 2.0 0.00 1.67 1.67 97 1014.4
20260905003033 76 84 0.0 2.0 0.00 1.67 1.67 97 1014.4
20260905002516 76 84 0.0 2.0 0.00 1.67 1.67 97 1014.5
20260905002017 76 84 1.0 2.0 0.00 1.67 1.67 97 1014.4
20260905001537 76 84 0.0 0.0 0.00 1.67 1.67 97 1014.3
20260905001003 76 84 0.0 1.0 0.00 1.67 1.67 97 1014.2
20260905000503 76 63 0.0 1.0 0.00 1.67 1.67 97 1014.2
20260905000026 76 350 0.0 2.0 0.00 1.67 1.67 97 1014.1
20260904235509 76 162 0.0 2.0 0.00 1.67 1.67 97 1014.1
20260904235008 76 321 0.0 2.0 0.00 1.67 1.67 97 1014.1
20260904234524 76 85 0.0 1.0 0.00 1.67 1.67 97 1014.2
20260904234013 76 200 0.0 0.0 0.00 1.67 1.67 97 1014.2
20260904233512 76 311 0.0 0.0 0.00 1.67 1.67 97 1014.2
20260904233004 76 311 0.0 0.0 0.00 1.67 1.67 97 1014.2
20260904232501 76 151 0.0 0.0 0.00 1.67 1.67 97 1014.1
20260904232003 76 151 0.0 0.0 0.00 1.67 1.67 97 1014.0
20260904231513 76 151 0.0 0.0 0.01 1.67 1.67 97 1014.0
20260904231003 76 151 0.0 0.0 0.01 1.67 1.67 97 1013.9
20260904230504 76 151 0.0 2.0 0.02 1.67 1.67 97 1013.9
20260904230041 76 151 0.0 2.0 0.03 1.67 1.67 97 1013.9
20260904225508 75 196 1.0 2.0 0.04 1.67 1.67 97 1013.8
20260904225010 75 173 0.0 2.0 0.05 1.67 1.67 97 1013.8
20260904224520 75 173 0.0 2.0 0.06 1.67 1.67 97 1013.8
20260904224010 75 197 1.0 2.0 0.07 1.67 1.67 97 1013.9
20260904223514 75 179 0.0 2.0 0.08 1.67 1.67 97 1013.9
20260904223027 75 172 1.0 2.0 0.09 1.67 1.67 97 1014.1